Tracking 29782 objects as of 13-Oct-2024
HD Live streaming from Space Station
objects crossing your sky now

PEGASUS R/B

Track PEGASUS R/B now!
10-day predictions


NORAD ID: 25506
Int'l Code: 1998-060B
Perigee: 725.1 km
Apogee: 758.0 km
Inclination: 25.0 °
Period: 99.5 minutes
Semi major axis: 7112 km
RCS: 1.6048 m2 (large)
Launch date: October 23, 1998
Source: United States (US)
Launch site: Pegasus launched from Eastern Range Air Space (ERAS)

Note: This is a ROCKET BODY
Your satellite tracking list
Your tracking list is empty




NASA's NSSDC Master Catalog

Two Line Element Set (TLE):
1 25506U 98060B   24286.72074959  .00001923  00000-0  46603-3 0  9993
2 25506  24.9962  66.3382 0023112  76.4107 306.9833 14.47310574373409
Source of the keplerian elements: AFSPC